TimeEST,TemperatureF,Dew PointF,Humidity,Sea Level PressureIn,VisibilityMPH,Wind Direction,Wind SpeedMPH,Gust SpeedMPH,PrecipitationIn,Events,Conditions,WindDirDegrees,DateUTC
12:53 AM,54.0,46.9,77,30.04,9.0,East,3.5,-,N/A,,Overcast,100,2012-12-08 05:53:00
1:53 AM,54.0,46.9,77,30.02,9.0,Calm,Calm,-,N/A,,Overcast,0,2012-12-08 06:53:00
2:53 AM,52.0,46.9,83,30.03,9.0,Calm,Calm,-,N/A,,Mostly Cloudy,0,2012-12-08 07:53:00
3:53 AM,51.1,46.9,86,30.01,9.0,Calm,Calm,-,N/A,,Overcast,0,2012-12-08 08:53:00
4:36 AM,50.0,46.4,87,30.03,8.0,Calm,Calm,-,N/A,,Mostly Cloudy,0,2012-12-08 09:36:00
4:53 AM,51.1,46.9,86,30.02,8.0,Calm,Calm,-,N/A,,Overcast,0,2012-12-08 09:53:00
5:53 AM,52.0,46.9,83,30.03,9.0,Calm,Calm,-,N/A,,Overcast,0,2012-12-08 10:53:00
6:53 AM,52.0,46.9,83,30.04,9.0,Calm,Calm,-,N/A,,Overcast,0,2012-12-08 11:53:00
7:26 AM,51.8,48.2,88,30.06,9.0,Calm,Calm,-,N/A,,Overcast,0,2012-12-08 12:26:00
7:53 AM,53.1,48.0,83,30.06,8.0,Calm,Calm,-,N/A,,Overcast,0,2012-12-08 12:53:00
8:53 AM,54.0,48.0,80,30.06,9.0,Calm,Calm,-,N/A,,Overcast,0,2012-12-08 13:53:00
9:53 AM,55.9,48.9,77,30.05,10.0,ESE,3.5,-,N/A,,Overcast,120,2012-12-08 14:53:00
10:21 AM,57.2,50.0,77,30.08,10.0,Calm,Calm,-,N/A,,Mostly Cloudy,0,2012-12-08 15:21:00
10:53 AM,59.0,50.0,72,30.06,10.0,Calm,Calm,-,N/A,,Overcast,0,2012-12-08 15:53:00
11:17 AM,59.0,50.0,72,30.07,10.0,SSE,4.6,-,N/A,,Overcast,150,2012-12-08 16:17:00
11:53 AM,60.1,51.1,72,30.04,10.0,Calm,Calm,-,N/A,,Overcast,0,2012-12-08 16:53:00
12:10 PM,60.8,51.8,72,30.05,10.0,Calm,Calm,-,N/A,,Overcast,0,2012-12-08 17:10:00
12:50 PM,57.2,53.6,88,30.05,2.5,WNW,5.8,-,0.01,Rain,Light Rain,290,2012-12-08 17:50:00
12:53 PM,57.0,54.0,89,30.04,2.0,West,5.8,-,0.01,Rain,Light Rain,280,2012-12-08 17:53:00
12:58 PM,55.4,53.6,94,30.05,1.5,NW,4.6,-,0.01,Rain,Light Rain,310,2012-12-08 17:58:00
1:20 PM,55.4,53.6,94,30.04,2.0,WNW,5.8,-,0.02,Rain,Light Rain,300,2012-12-08 18:20:00
1:25 PM,55.4,53.6,94,30.04,1.5,Calm,Calm,-,0.04,Rain,Light Rain,0,2012-12-08 18:25:00
1:37 PM,55.4,53.6,94,30.04,1.8,NW,3.5,-,0.06,Rain,Light Rain,310,2012-12-08 18:37:00
1:41 PM,55.4,53.6,94,30.03,2.5,NNW,3.5,-,0.06,Rain,Light Rain,330,2012-12-08 18:41:00
1:50 PM,55.4,53.6,94,30.03,1.8,NW,3.5,-,0.08,Rain,Light Rain,310,2012-12-08 18:50:00
1:53 PM,55.9,54.0,93,30.02,2.0,Calm,Calm,-,0.08,Rain,Light Rain,0,2012-12-08 18:53:00
1:59 PM,55.4,53.6,94,30.03,2.5,Calm,Calm,-,0.00,Rain,Light Rain,0,2012-12-08 18:59:00
2:06 PM,55.4,53.6,94,30.03,3.0,Calm,Calm,-,0.00,Rain,Light Rain,0,2012-12-08 19:06:00
2:53 PM,57.9,55.0,90,30.01,4.0,Calm,Calm,-,0.00,,Overcast,0,2012-12-08 19:53:00
3:15 PM,57.2,55.4,94,30.04,4.0,WSW,3.5,-,N/A,,Overcast,240,2012-12-08 20:15:00
3:42 PM,57.2,55.4,94,30.04,2.5,North,3.5,-,N/A,,Overcast,350,2012-12-08 20:42:00
3:53 PM,57.0,55.0,93,30.03,2.5,Calm,Calm,-,N/A,,Overcast,0,2012-12-08 20:53:00
4:02 PM,57.2,55.4,94,30.04,2.5,Calm,Calm,-,0.00,Rain,Light Rain,0,2012-12-08 21:02:00
4:18 PM,57.2,55.4,94,30.04,1.8,Calm,Calm,-,0.00,Rain,Light Rain,0,2012-12-08 21:18:00
4:27 PM,57.2,55.4,94,30.04,1.5,Calm,Calm,-,0.02,Rain,Light Rain,0,2012-12-08 21:27:00
4:33 PM,57.2,55.4,94,30.04,2.0,Calm,Calm,-,0.02,Rain,Light Rain,0,2012-12-08 21:33:00
4:39 PM,57.2,55.4,94,30.04,2.5,Calm,Calm,-,0.02,Rain,Light Rain,0,2012-12-08 21:39:00
4:53 PM,57.0,55.0,93,30.02,2.5,ENE,3.5,-,0.02,,Overcast,60,2012-12-08 21:53:00
5:03 PM,57.2,55.4,94,30.03,1.8,East,3.5,-,N/A,,Mostly Cloudy,80,2012-12-08 22:03:00
5:13 PM,57.2,55.4,94,30.03,1.5,Calm,Calm,-,N/A,,Mostly Cloudy,0,2012-12-08 22:13:00
5:28 PM,57.2,55.4,94,30.03,2.0,ESE,4.6,-,N/A,,Mostly Cloudy,120,2012-12-08 22:28:00
5:36 PM,57.2,55.4,94,30.04,2.5,ESE,4.6,-,N/A,,Overcast,120,2012-12-08 22:36:00
5:48 PM,57.2,55.4,94,30.04,2.0,SE,4.6,-,N/A,,Overcast,130,2012-12-08 22:48:00
5:53 PM,57.0,55.0,93,30.02,2.5,SE,4.6,-,N/A,,Overcast,130,2012-12-08 22:53:00
6:08 PM,57.2,55.4,94,30.04,3.0,ESE,4.6,-,N/A,,Overcast,120,2012-12-08 23:08:00
6:44 PM,57.2,55.4,94,30.04,4.0,ESE,3.5,-,N/A,,Overcast,120,2012-12-08 23:44:00
6:53 PM,57.0,55.0,93,30.03,4.0,East,3.5,-,N/A,,Overcast,100,2012-12-08 23:53:00
7:53 PM,55.9,54.0,93,30.05,4.0,Calm,Calm,-,N/A,,Overcast,0,2012-12-09 00:53:00
8:53 PM,55.9,55.0,97,30.06,2.5,Calm,Calm,-,0.00,,Overcast,0,2012-12-09 01:53:00
9:40 PM,57.2,55.4,94,30.07,3.0,ENE,3.5,-,N/A,,Overcast,60,2012-12-09 02:40:00
9:53 PM,57.0,55.0,93,30.05,3.0,ENE,3.5,-,N/A,,Overcast,70,2012-12-09 02:53:00
10:38 PM,55.4,53.6,94,30.07,2.5,Calm,Calm,-,N/A,,Overcast,0,2012-12-09 03:38:00
10:53 PM,55.9,54.0,93,30.05,2.5,ESE,3.5,-,N/A,,Overcast,110,2012-12-09 03:53:00
11:36 PM,55.4,55.4,100,30.08,3.0,Calm,Calm,-,N/A,,Overcast,0,2012-12-09 04:36:00
11:53 PM,55.9,55.0,97,30.06,3.0,Calm,Calm,-,0.00,,Overcast,0,2012-12-09 04:53:00